Station History

Weather Underground - logo

Station Historical Data
Daily Summary for February 22, 2018 Units:  English    Metric   Both
« Previous Day
Next Day »
Daily Weekly Monthly Yearly Custom
  High: Low: Average:
Temperature: 58.8 °F 30.0 °F 44.2 °F
Dew Point: 40.1 °F 26.1 °F 30.6 °F
Humidity: 89 % 31 % 63 %
Wind Speed: 9.2 mph 0.0 mph 1.4 mph
Wind Gust: 9.2 mph - -
Wind:- - WSW
Pressure: 30.27 in 30.14 in -
Precipitation: 0.02 in    
Historical Graphs
 
 
Tabular Data for February 22, 2018
Time Temperature Dew Point Pressure Wind Wind Speed Wind Gust Humidity Rainfall Rate (Hourly)
00:04 35.4 °F 28.3 °F 30.23 in ESE 1.2 mph 1.2 mph 75 % 0.00 in
00:09 34.6 °F 27.8 °F 30.23 in Calm     76 % 0.00 in
00:14 34.4 °F 27.9 °F 30.23 in Calm     77 % 0.00 in
00:19 34.2 °F 28.4 °F 30.23 in Calm     79 % 0.00 in
00:24 33.9 °F 28.4 °F 30.23 in Calm     80 % 0.00 in
00:29 33.5 °F 28.3 °F 30.23 in Calm     81 % 0.00 in
00:34 33.2 °F 28.6 °F 30.23 in Calm     83 % 0.00 in
00:39 33.0 °F 28.4 °F 30.23 in Calm     83 % 0.00 in
00:44 32.8 °F 28.2 °F 30.23 in Calm     83 % 0.00 in
00:49 32.7 °F 28.4 °F 30.23 in Calm     84 % 0.00 in
00:54 32.7 °F 28.4 °F 30.23 in Calm     84 % 0.00 in
00:59 32.7 °F 28.4 °F 30.23 in Calm     84 % 0.00 in
01:04 33.0 °F 28.4 °F 30.23 in Calm     83 % 0.00 in
01:09 33.0 °F 28.1 °F 30.23 in Calm     82 % 0.00 in
01:14 32.8 °F 27.9 °F 30.23 in Calm     82 % 0.00 in
01:19 32.8 °F 27.9 °F 30.23 in Calm     82 % 0.00 in
01:24 32.6 °F 27.4 °F 30.22 in Calm     81 % 0.00 in
01:30 32.5 °F 27.3 °F 30.23 in Calm     81 % 0.00 in
01:35 32.3 °F 27.1 °F 30.23 in Calm     81 % 0.00 in
01:40 32.4 °F 27.8 °F 30.23 in Calm     83 % 0.00 in
01:45 32.3 °F 27.7 °F 30.23 in Calm     83 % 0.00 in
01:50 32.2 °F 27.6 °F 30.23 in Calm     83 % 0.00 in
01:55 32.0 °F 27.7 °F 30.23 in Calm     84 % 0.00 in
02:00 31.8 °F 27.8 °F 30.23 in Calm     85 % 0.00 in
02:05 31.6 °F 27.9 °F 30.23 in Calm     86 % 0.00 in
02:10 31.6 °F 27.9 °F 30.23 in Calm     86 % 0.00 in
02:15 31.4 °F 28.0 °F 30.23 in Calm     87 % 0.00 in
02:20 31.5 °F 28.1 °F 30.22 in Calm     87 % 0.00 in
02:25 31.4 °F 28.0 °F 30.23 in Calm     87 % 0.00 in
02:30 31.4 °F 27.7 °F 30.22 in ESE 1.2 mph   86 % 0.00 in
02:35 31.2 °F 27.5 °F 30.22 in Calm     86 % 0.00 in
02:40 31.1 °F 27.4 °F 30.22 in Calm     86 % 0.00 in
02:45 31.0 °F 27.3 °F 30.22 in Calm     86 % 0.00 in
02:50 31.1 °F 26.8 °F 30.21 in Calm     84 % 0.00 in
02:55 31.3 °F 26.4 °F 30.21 in Calm     82 % 0.00 in
03:00 31.0 °F 26.1 °F 30.21 in Calm     82 % 0.00 in
03:05 30.8 °F 26.2 °F 30.21 in Calm     83 % 0.00 in
03:10 30.6 °F 26.1 °F 30.21 in Calm     83 % 0.00 in
03:15 30.4 °F 26.1 °F 30.22 in Calm     84 % 0.00 in
03:20 30.3 °F 26.3 °F 30.22 in Calm     85 % 0.00 in
03:25 30.2 °F 26.5 °F 30.22 in Calm     86 % 0.00 in
03:30 30.1 °F 26.4 °F 30.21 in Calm     86 % 0.00 in
03:35 30.1 °F 26.4 °F 30.22 in Calm     86 % 0.00 in
03:40 30.0 °F 26.3 °F 30.21 in Calm     86 % 0.00 in
03:45 30.0 °F 26.3 °F 30.21 in Calm     86 % 0.00 in
03:50 30.2 °F 26.5 °F 30.21 in Calm     86 % 0.00 in
03:55 30.4 °F 26.7 °F 30.22 in Calm     86 % 0.00 in
04:00 30.4 °F 26.4 °F 30.22 in Calm     85 % 0.00 in
04:05 30.3 °F 26.3 °F 30.22 in Calm     85 % 0.00 in
04:10 30.1 °F 26.1 °F 30.22 in Calm     85 % 0.00 in
04:15 30.2 °F 26.5 °F 30.22 in Calm     86 % 0.00 in
04:20 30.5 °F 26.5 °F 30.22 in Calm     85 % 0.00 in
04:25 30.6 °F 26.6 °F 30.22 in Calm     85 % 0.00 in
04:30 30.6 °F 26.3 °F 30.22 in Calm     84 % 0.00 in
04:35 30.6 °F 26.6 °F 30.22 in Calm     85 % 0.00 in
04:40 30.7 °F 26.4 °F 30.22 in Calm     84 % 0.00 in
04:45 30.6 °F 26.3 °F 30.22 in Calm     84 % 0.00 in
04:50 30.6 °F 26.3 °F 30.22 in Calm     84 % 0.00 in
04:55 30.5 °F 26.2 °F 30.22 in Calm     84 % 0.00 in
05:00 30.5 °F 26.2 °F 30.22 in Calm     84 % 0.00 in
05:05 30.7 °F 26.4 °F 30.22 in Calm     84 % 0.00 in
05:10 30.5 °F 26.2 °F 30.22 in Calm     84 % 0.00 in
05:15 30.5 °F 26.8 °F 30.22 in Calm     86 % 0.00 in
05:21 30.4 °F 26.7 °F 30.22 in Calm     86 % 0.00 in
05:26 30.3 °F 26.6 °F 30.22 in Calm     86 % 0.00 in
05:31 30.2 °F 26.5 °F 30.22 in Calm     86 % 0.00 in
05:36 30.0 °F 26.3 °F 30.22 in Calm     86 % 0.00 in
05:41 30.0 °F 26.3 °F 30.22 in Calm     86 % 0.00 in
05:46 30.4 °F 27.0 °F 30.23 in Calm     87 % 0.00 in
05:51 30.6 °F 26.9 °F 30.22 in Calm     86 % 0.00 in
05:56 30.9 °F 26.9 °F 30.23 in Calm     85 % 0.00 in
06:01 31.0 °F 26.7 °F 30.23 in Calm     84 % 0.00 in
06:06 31.0 °F 26.4 °F 30.23 in Calm     83 % 0.00 in
06:11 31.2 °F 26.6 °F 30.24 in Calm     83 % 0.00 in
06:16 31.4 °F 26.8 °F 30.24 in Calm     83 % 0.00 in
06:21 31.4 °F 26.8 °F 30.24 in Calm     83 % 0.00 in
06:26 31.0 °F 26.7 °F 30.24 in Calm     84 % 0.00 in
06:31 30.6 °F 26.6 °F 30.24 in Calm     85 % 0.00 in
06:36 30.4 °F 26.7 °F 30.25 in Calm     86 % 0.00 in
06:41 30.5 °F 26.8 °F 30.25 in Calm     86 % 0.00 in
06:46 30.5 °F 26.8 °F 30.25 in Calm     86 % 0.00 in
06:51 30.7 °F 27.0 °F 30.25 in Calm     86 % 0.00 in
06:56 30.8 °F 27.1 °F 30.25 in Calm     86 % 0.00 in
07:01 31.0 °F 27.3 °F 30.25 in Calm     86 % 0.00 in
07:06 31.5 °F 27.5 °F 30.25 in Calm     85 % 0.00 in
07:11 31.7 °F 27.4 °F 30.25 in Calm     84 % 0.00 in
07:16 32.0 °F 27.4 °F 30.25 in Calm     83 % 0.00 in
07:21 32.3 °F 27.7 °F 30.25 in Calm     83 % 0.00 in
07:26 32.6 °F 28.0 °F 30.25 in Calm     83 % 0.00 in
07:31 32.9 °F 28.9 °F 30.26 in Calm     85 % 0.00 in
07:36 32.9 °F 28.9 °F 30.26 in Calm     85 % 0.00 in
07:41 33.0 °F 29.3 °F 30.25 in Calm     86 % 0.00 in
07:46 33.2 °F 29.5 °F 30.26 in Calm     86 % 0.00 in
07:51 34.2 °F 30.7 °F 30.26 in Calm     87 % 0.00 in
07:56 35.5 °F 30.8 °F 30.26 in Calm     83 % 0.00 in
08:01 36.2 °F 30.6 °F 30.26 in Calm     80 % 0.00 in
08:06 36.5 °F 30.3 °F 30.26 in Calm     78 % 0.00 in
08:11 36.8 °F 30.9 °F 30.26 in Calm     79 % 0.00 in
08:16 37.7 °F 31.8 °F 30.26 in South 1.2 mph 1.2 mph 79 % 0.00 in
08:21 38.9 °F 32.3 °F 30.26 in ESE 1.2 mph 1.2 mph 77 % 0.00 in
08:26 39.3 °F 31.7 °F 30.26 in SE 1.2 mph   74 % 0.00 in
08:31 40.0 °F 31.0 °F 30.26 in SE 1.2 mph   70 % 0.00 in
08:36 41.0 °F 31.2 °F 30.26 in East 2.3 mph 2.3 mph 68 % 0.00 in
08:41 42.1 °F 31.2 °F 30.26 in SSE 3.5 mph 3.5 mph 65 % 0.00 in
08:46 42.9 °F 31.2 °F 30.26 in Calm     63 % 0.00 in
08:51 43.8 °F 30.4 °F 30.26 in South 3.5 mph 3.5 mph 59 % 0.00 in
08:56 44.3 °F 30.0 °F 30.26 in East 3.0 mph 3.0 mph 57 % 0.00 in
09:01 45.3 °F 29.6 °F 30.26 in ESE 3.5 mph 3.5 mph 54 % 0.00 in
09:06 46.2 °F 30.0 °F 30.26 in SE 3.5 mph 3.5 mph 53 % 0.00 in
09:11 47.0 °F 29.3 °F 30.25 in South 2.3 mph 2.3 mph 50 % 0.00 in
09:16 47.7 °F 28.9 °F 30.25 in SSE 3.5 mph 3.5 mph 48 % 0.00 in
09:21 48.2 °F 27.8 °F 30.25 in SSE 3.5 mph 3.5 mph 45 % 0.00 in
09:26 48.8 °F 27.8 °F 30.25 in SE 3.5 mph 3.5 mph 44 % 0.00 in
09:31 49.2 °F 28.2 °F 30.25 in South 2.3 mph 2.3 mph 44 % 0.00 in
09:36 50.0 °F 28.4 °F 30.25 in SSW 4.0 mph 4.0 mph 43 % 0.00 in
09:41 50.5 °F 27.7 °F 30.26 in ENE 2.3 mph 2.3 mph 41 % 0.00 in
09:46 51.2 °F 27.7 °F 30.26 in SE 1.2 mph 1.2 mph 40 % 0.00 in
09:51 51.8 °F 28.2 °F 30.26 in Calm   0.1 mph 40 % 0.00 in
09:56 51.9 °F 27.7 °F 30.26 in South 1.2 mph   39 % 0.00 in
10:01 52.1 °F 28.5 °F 30.26 in South 1.2 mph 1.2 mph 40 % 0.00 in
10:06 52.4 °F 27.5 °F 30.26 in ESE 1.2 mph 1.2 mph 38 % 0.00 in
10:11 52.5 °F 28.2 °F 30.27 in SSE 3.5 mph   39 % 0.00 in
10:16 52.5 °F 28.2 °F 30.27 in SSE 1.2 mph 1.2 mph 39 % 0.00 in
10:21 52.6 °F 27.7 °F 30.27 in NNW 2.0 mph 2.0 mph 38 % 0.00 in
10:26 52.2 °F 26.7 °F 30.27 in SE 3.0 mph 3.0 mph 37 % 0.00 in
10:31 52.0 °F 27.1 °F 30.27 in SSE 3.0 mph 3.0 mph 38 % 0.00 in
10:36 52.1 °F 27.9 °F 30.27 in SSW 1.2 mph   39 % 0.00 in
10:41 52.3 °F 27.4 °F 30.27 in SSE 2.0 mph 2.0 mph 38 % 0.00 in
10:46 52.9 °F 28.0 °F 30.27 in North 3.0 mph 3.0 mph 38 % 0.00 in
10:51 53.6 °F 27.9 °F 30.27 in North 1.2 mph 1.2 mph 37 % 0.00 in
10:56 53.5 °F 29.1 °F 30.27 in SE 3.5 mph 3.5 mph 39 % 0.00 in
11:01 54.3 °F 28.6 °F 30.27 in SSW 4.6 mph 4.6 mph 37 % 0.00 in
11:06 54.9 °F 29.7 °F 30.27 in SW 1.2 mph 1.2 mph 38 % 0.00 in
11:11 54.3 °F 28.6 °F 30.27 in NW 2.3 mph 2.3 mph 37 % 0.00 in
11:16 53.9 °F 30.1 °F 30.26 in West 1.2 mph 1.2 mph 40 % 0.00 in
11:21 53.8 °F 28.8 °F 30.26 in NNW 2.3 mph 2.3 mph 38 % 0.00 in
11:26 54.1 °F 29.7 °F 30.26 in SW 3.5 mph 3.5 mph 39 % 0.00 in
11:31 54.5 °F 30.0 °F 30.26 in SSW 4.0 mph 4.0 mph 39 % 0.00 in
11:36 54.8 °F 29.7 °F 30.26 in SSE 3.5 mph 3.5 mph 38 % 0.00 in
11:41 54.9 °F 29.7 °F 30.26 in NNW 2.0 mph 2.0 mph 38 % 0.00 in
11:46 54.6 °F 28.8 °F 30.26 in WNW 3.5 mph 3.5 mph 37 % 0.00 in
11:51 54.3 °F 28.6 °F 30.25 in NW 2.3 mph 2.3 mph 37 % 0.00 in
11:56 54.7 °F 30.2 °F 30.25 in SE 1.2 mph 1.2 mph 39 % 0.00 in
12:01 55.6 °F 30.4 °F 30.25 in NNW 3.5 mph 3.5 mph 38 % 0.00 in
12:06 56.0 °F 30.7 °F 30.24 in South 3.5 mph 3.5 mph 38 % 0.00 in
12:11 56.6 °F 29.9 °F 30.24 in NW 1.2 mph 1.2 mph 36 % 0.00 in
12:16 56.6 °F 29.2 °F 30.24 in East 1.2 mph   35 % 0.00 in
12:21 56.3 °F 28.3 °F 30.23 in NW 3.5 mph 3.5 mph 34 % 0.00 in
12:26 55.9 °F 28.6 °F 30.23 in South 2.3 mph 2.3 mph 35 % 0.00 in
12:31 57.0 °F 28.9 °F 30.23 in SSE 1.2 mph 2.0 mph 34 % 0.00 in
12:36 57.6 °F 29.4 °F 30.23 in SE 1.2 mph 1.2 mph 34 % 0.00 in
12:41 57.8 °F 28.9 °F 30.22 in WNW 1.2 mph 1.2 mph 33 % 0.00 in
12:46 57.4 °F 29.9 °F 30.22 in NW 4.6 mph 4.6 mph 35 % 0.00 in
12:51 57.2 °F 29.8 °F 30.22 in WNW 1.2 mph 1.2 mph 35 % 0.00 in
12:56 57.3 °F 28.4 °F 30.21 in North 3.5 mph 3.5 mph 33 % 0.00 in
13:02 57.2 °F 29.1 °F 30.21 in NNW 3.5 mph 3.5 mph 34 % 0.00 in
13:07 56.7 °F 28.6 °F 30.21 in NW 1.2 mph 1.2 mph 34 % 0.00 in
13:12 57.0 °F 28.9 °F 30.21 in NW 3.5 mph 3.5 mph 34 % 0.00 in
13:17 57.2 °F 29.8 °F 30.21 in NW 2.3 mph 2.3 mph 35 % 0.00 in
13:22 57.4 °F 27.7 °F 30.20 in NW 2.3 mph 2.3 mph 32 % 0.00 in
13:27 57.6 °F 28.7 °F 30.20 in WNW 2.3 mph 2.3 mph 33 % 0.00 in
13:32 57.8 °F 27.3 °F 30.20 in NW 2.3 mph 2.3 mph 31 % 0.00 in
13:37 58.3 °F 29.3 °F 30.20 in SE 2.3 mph 2.3 mph 33 % 0.00 in
13:42 58.8 °F 29.0 °F 30.20 in SSE 3.5 mph 3.5 mph 32 % 0.00 in
13:47 58.7 °F 28.9 °F 30.20 in NW 3.5 mph 3.5 mph 32 % 0.00 in
13:52 58.0 °F 27.5 °F 30.19 in NW 3.5 mph 3.5 mph 31 % 0.00 in
13:57 58.4 °F 28.6 °F 30.19 in NW 4.0 mph 4.0 mph 32 % 0.00 in
14:02 58.4 °F 27.9 °F 30.19 in NW 3.5 mph 3.5 mph 31 % 0.00 in
14:07 58.3 °F 27.8 °F 30.19 in WNW 2.0 mph 2.0 mph 31 % 0.00 in
14:12 58.0 °F 27.5 °F 30.19 in NW 3.5 mph 3.5 mph 31 % 0.00 in
14:17 57.7 °F 28.0 °F 30.19 in WNW 5.8 mph 5.8 mph 32 % 0.00 in
14:22 57.9 °F 28.2 °F 30.19 in WNW 2.3 mph 2.3 mph 32 % 0.00 in
14:27 57.7 °F 28.0 °F 30.19 in WNW 2.3 mph 2.3 mph 32 % 0.00 in
14:32 57.7 °F 28.0 °F 30.19 in East 1.2 mph 1.2 mph 32 % 0.00 in
14:37 57.9 °F 29.7 °F 30.19 in South 3.0 mph 3.0 mph 34 % 0.00 in
14:42 58.4 °F 28.6 °F 30.19 in WNW 3.0 mph 3.0 mph 32 % 0.00 in
14:47 58.2 °F 28.5 °F 30.19 in NW 3.5 mph 3.5 mph 32 % 0.00 in
14:52 57.7 °F 28.0 °F 30.19 in SE 3.5 mph 3.5 mph 32 % 0.00 in
14:57 57.7 °F 28.8 °F 30.18 in NE 1.2 mph 1.2 mph 33 % 0.00 in
15:02 58.1 °F 29.8 °F 30.18 in WNW 3.5 mph 3.5 mph 34 % 0.00 in
15:07 57.9 °F 28.9 °F 30.18 in NW 5.0 mph 5.0 mph 33 % 0.00 in
15:12 57.3 °F 28.4 °F 30.18 in NW 3.5 mph 3.5 mph 33 % 0.00 in
15:17 56.6 °F 28.5 °F 30.18 in NW 3.5 mph 3.5 mph 34 % 0.00 in
15:22 56.1 °F 28.8 °F 30.18 in NW 3.5 mph 3.5 mph 35 % 0.00 in
15:27 56.4 °F 29.7 °F 30.17 in NW 4.6 mph 4.6 mph 36 % 0.00 in
15:32 56.4 °F 29.7 °F 30.17 in NNW 4.6 mph 4.6 mph 36 % 0.00 in
15:37 55.9 °F 29.3 °F 30.17 in NW 4.0 mph 4.0 mph 36 % 0.00 in
15:42 56.0 °F 30.1 °F 30.17 in NW 3.5 mph 3.5 mph 37 % 0.00 in
15:47 55.5 °F 30.3 °F 30.17 in NNW 3.5 mph 3.5 mph 38 % 0.00 in
15:52 55.0 °F 29.2 °F 30.17 in WNW 3.5 mph 3.5 mph 37 % 0.00 in
15:57 54.6 °F 30.1 °F 30.17 in NW 3.5 mph 3.5 mph 39 % 0.00 in
16:02 54.4 °F 30.6 °F 30.17 in WNW 2.3 mph 2.3 mph 40 % 0.00 in
16:07 54.8 °F 31.5 °F 30.17 in NW 3.5 mph 3.5 mph 41 % 0.00 in
16:12 55.3 °F 30.7 °F 30.17 in NW 5.0 mph 5.0 mph 39 % 0.00 in
16:17 55.3 °F 30.7 °F 30.17 in NW 4.6 mph 4.6 mph 39 % 0.00 in
16:22 54.9 °F 31.0 °F 30.17 in NW 2.3 mph 2.3 mph 40 % 0.00 in
16:27 54.6 °F 30.7 °F 30.17 in NW 3.5 mph 3.5 mph 40 % 0.00 in
16:32 54.9 °F 30.4 °F 30.17 in North 6.9 mph 6.9 mph 39 % 0.00 in
16:37 55.0 °F 30.5 °F 30.16 in NW 2.3 mph 2.3 mph 39 % 0.00 in
16:42 55.0 °F 31.1 °F 30.16 in NW 2.3 mph 2.3 mph 40 % 0.00 in
16:47 54.9 °F 31.0 °F 30.16 in NW 3.5 mph 3.5 mph 40 % 0.00 in
16:52 54.8 °F 32.1 °F 30.16 in NW 2.3 mph 2.3 mph 42 % 0.00 in
16:57 54.7 °F 30.8 °F 30.16 in WNW 2.3 mph 2.3 mph 40 % 0.00 in
17:02 54.5 °F 30.0 °F 30.16 in Calm     39 % 0.00 in
17:07 54.3 °F 29.8 °F 30.16 in Calm     39 % 0.00 in
17:12 53.9 °F 30.7 °F 30.16 in Calm     41 % 0.00 in
17:17 53.6 °F 30.4 °F 30.16 in WNW 1.2 mph   41 % 0.00 in
17:22 53.4 °F 29.7 °F 30.15 in North 1.2 mph 1.2 mph 40 % 0.00 in
17:27 53.3 °F 29.6 °F 30.15 in Calm     40 % 0.00 in
17:32 53.1 °F 29.4 °F 30.15 in NW 1.2 mph   40 % 0.00 in
17:37 52.6 °F 29.5 °F 30.15 in Calm     41 % 0.00 in
17:42 52.2 °F 29.2 °F 30.15 in Calm     41 % 0.00 in
17:47 51.7 °F 28.7 °F 30.15 in Calm     41 % 0.00 in
17:52 51.6 °F 28.0 °F 30.15 in Calm     40 % 0.00 in
17:57 51.2 °F 30.0 °F 30.15 in Calm     44 % 0.00 in
18:02 50.5 °F 29.4 °F 30.15 in Calm     44 % 0.00 in
18:07 50.0 °F 30.0 °F 30.14 in Calm     46 % 0.00 in
18:12 49.5 °F 30.6 °F 30.14 in Calm     48 % 0.00 in
18:17 49.3 °F 32.4 °F 30.15 in Calm     52 % 0.00 in
18:22 49.1 °F 31.7 °F 30.14 in Calm     51 % 0.00 in
18:27 49.2 °F 32.3 °F 30.15 in Calm     52 % 0.00 in
18:32 49.1 °F 32.7 °F 30.15 in Calm     53 % 0.00 in
18:37 48.9 °F 32.0 °F 30.15 in Calm     52 % 0.00 in
18:42 49.0 °F 34.9 °F 30.15 in Calm     58 % 0.00 in
18:47 48.7 °F 33.2 °F 30.15 in Calm     55 % 0.00 in
18:52 48.6 °F 34.0 °F 30.15 in Calm     57 % 0.00 in
18:57 48.6 °F 34.5 °F 30.16 in Calm     58 % 0.00 in
19:02 48.4 °F 35.6 °F 30.16 in Calm     61 % 0.00 in
19:07 48.4 °F 33.0 °F 30.16 in WNW 1.2 mph 1.2 mph 55 % 0.00 in
19:12 49.0 °F 31.6 °F 30.17 in South 3.0 mph 3.0 mph 51 % 0.00 in
19:17 49.7 °F 30.8 °F 30.17 in NW 3.5 mph 3.5 mph 48 % 0.00 in
19:22 50.1 °F 30.6 °F 30.17 in NW 6.0 mph 6.0 mph 47 % 0.00 in
19:27 50.2 °F 32.8 °F 30.17 in NW 6.0 mph 6.0 mph 51 % 0.00 in
19:32 50.0 °F 33.5 °F 30.18 in WNW 6.9 mph 6.9 mph 53 % 0.00 in
19:37 49.7 °F 34.2 °F 30.18 in WNW 4.6 mph 4.6 mph 55 % 0.00 in
19:43 49.5 °F 33.5 °F 30.18 in NW 4.6 mph 4.6 mph 54 % 0.00 in
19:48 49.4 °F 33.9 °F 30.19 in NW 9.2 mph 9.2 mph 55 % 0.00 in
19:53 49.2 °F 35.0 °F 30.20 in WNW 3.5 mph 3.5 mph 58 % 0.00 in
19:58 48.3 °F 37.1 °F 30.20 in NW 8.1 mph 8.1 mph 65 % 0.00 in
20:03 46.6 °F 38.4 °F 30.21 in NNW 3.5 mph 3.5 mph 73 % 0.00 in
20:08 45.5 °F 38.7 °F 30.20 in NW 3.5 mph 3.5 mph 77 % 0.00 in
20:13 45.1 °F 38.6 °F 30.20 in NNW 2.3 mph 2.3 mph 78 % 0.00 in
20:18 45.0 °F 38.9 °F 30.20 in NNW 1.2 mph 1.2 mph 79 % 0.00 in
20:23 45.1 °F 38.6 °F 30.20 in Calm     78 % 0.00 in
20:28 45.1 °F 39.0 °F 30.20 in Calm     79 % 0.00 in
20:33 45.1 °F 39.0 °F 30.20 in Calm     79 % 0.00 in
20:38 45.0 °F 38.9 °F 30.20 in WNW 1.2 mph 1.2 mph 79 % 0.00 in
20:43 45.1 °F 39.3 °F 30.20 in Calm     80 % 0.00 in
20:48 45.1 °F 39.6 °F 30.20 in Calm     81 % 0.01 in
20:53 45.0 °F 39.8 °F 30.20 in Calm     82 % 0.01 in
20:58 44.9 °F 40.0 °F 30.20 in Calm     83 % 0.01 in
21:03 44.7 °F 39.9 °F 30.20 in Calm     83 % 0.01 in
21:08 44.4 °F 39.6 °F 30.20 in NE 1.2 mph 1.2 mph 83 % 0.01 in
21:13 44.3 °F 39.8 °F 30.20 in NE 2.3 mph 2.3 mph 84 % 0.01 in
21:18 44.1 °F 39.3 °F 30.20 in Calm     83 % 0.01 in
21:23 44.0 °F 39.2 °F 30.20 in Calm     83 % 0.01 in
21:28 43.8 °F 39.0 °F 30.20 in Calm     83 % 0.01 in
21:33 43.7 °F 39.5 °F 30.20 in Calm     85 % 0.01 in
21:38 43.6 °F 39.4 °F 30.20 in Calm     85 % 0.01 in
21:43 43.5 °F 39.3 °F 30.20 in Calm     85 % 0.01 in
21:48 43.3 °F 39.1 °F 30.20 in Calm     85 % 0.00 in
21:53 43.5 °F 39.3 °F 30.20 in NW 2.3 mph 2.3 mph 85 % 0.00 in
21:58 43.7 °F 39.5 °F 30.20 in NW 1.2 mph 1.2 mph 85 % 0.00 in
22:03 43.9 °F 39.4 °F 30.20 in NW 1.2 mph 1.2 mph 84 % 0.00 in
22:08 43.9 °F 39.4 °F 30.20 in WNW 1.2 mph 1.2 mph 84 % 0.00 in
22:13 43.9 °F 39.7 °F 30.21 in WNW 1.2 mph 1.2 mph 85 % 0.00 in
22:18 43.8 °F 39.9 °F 30.21 in NW 1.2 mph 1.2 mph 86 % 0.00 in
22:23 43.8 °F 39.9 °F 30.21 in Calm     86 % 0.01 in
22:28 43.7 °F 40.1 °F 30.20 in Calm     87 % 0.01 in
22:33 43.6 °F 39.7 °F 30.20 in North 1.2 mph   86 % 0.01 in
22:38 43.5 °F 39.9 °F 30.20 in Calm     87 % 0.01 in
22:43 43.2 °F 39.6 °F 30.20 in Calm     87 % 0.01 in
22:48 43.0 °F 39.4 °F 30.20 in Calm     87 % 0.01 in
22:53 42.8 °F 39.5 °F 30.20 in Calm     88 % 0.01 in
22:58 42.7 °F 39.7 °F 30.20 in Calm     89 % 0.01 in
23:03 42.8 °F 39.8 °F 30.20 in Calm     89 % 0.01 in
23:08 42.9 °F 39.6 °F 30.20 in Calm     88 % 0.01 in
23:13 43.2 °F 39.9 °F 30.20 in Calm     88 % 0.01 in
23:18 43.4 °F 39.8 °F 30.20 in Calm     87 % 0.01 in
23:23 43.6 °F 40.0 °F 30.20 in North 1.2 mph 1.2 mph 87 % 0.00 in
23:28 43.8 °F 39.9 °F 30.21 in NW 1.2 mph 1.2 mph 86 % 0.00 in
23:33 43.9 °F 39.7 °F 30.21 in NNW 2.3 mph 2.3 mph 85 % 0.00 in
23:38 43.8 °F 39.3 °F 30.21 in NW 1.2 mph 1.2 mph 84 % 0.00 in
23:43 43.9 °F 39.1 °F 30.21 in NW 2.3 mph 2.3 mph 83 % 0.00 in
23:48 43.8 °F 39.0 °F 30.21 in NW 3.5 mph 3.5 mph 83 % 0.00 in
23:53 43.5 °F 39.0 °F 30.22 in NW 3.0 mph 3.0 mph 84 % 0.00 in
23:58 43.1 °F 38.9 °F 30.21 in WNW 3.5 mph 3.5 mph 85 % 0.00 in
Park Place, Exeter, Tulare County, California, USA
Compliments of Weather Underground - 2.75 mb